Tuscaloosa, AL

8:00 AM CDT on September 26, 2017 (GMT -0500)
Tuscaloosa Municipal

Weather History for KTCL - January, 2014

Change the Weather History Date:

Saturday, January 25, 2014

  Actual Average Record
Temperature  
Mean Temperature 39 °F 45 °F  
Max Temperature 57 °F 56 °F 81 °F (1950)
Min Temperature 20 °F 34 °F 11 °F (1963)
Degree Days  
Heating Degree Days 26 20  
Month to date heating degree days 645 514  
Since 1 July heating degree days 1649 1515  
Moisture  
Dew Point 17 °F    
Average Humidity 48    
Maximum Humidity 72    
Minimum Humidity 24    
Precipitation  
Precipitation 0.00 in 0.18 in 1.95 in (1976)
Month to date precipitation 2.09 4.17  
Year to date precipitation 2.09 4.17  
Sea Level Pressure  
Sea Level Pressure 30.08 in    
Wind  
Wind Speed 5 mph (SW)    
Max Wind Speed 15 mph    
Max Gust Speed 21 mph    
Visibility 10 miles    
Events      
T = Trace of Precipitation, MM = Missing Value Source: NWS Daily Summary

Daily Weather History Graph

Daily Weather History Graph

Search for Another Location

Airport or City:

Trip Planner

Search our weather history database for the weather conditions in past years. The results will help you decide how hot, cold, wet, or windy it might be!

Date:

Astronomy

Jan. 25, 2014 Rise Set
Actual Time 6:50 AM CST 5:15 PM CST
Civil Twilight 6:23 AM CST 5:42 PM CST
Nautical Twilight 5:53 AM CST 6:12 PM CST
Astronomical Twilight 5:24 AM CST 6:41 PM CST
Moon 1:23 AM CST (1/25) 12:15 PM CST (1/25)
Length of Visible Light 11h 18m
Length of Day
10h 25m
Waning Crescent, 34% of the Moon is Illuminated
Jan 25
Waning Crescent
Jan 30
New
Feb 6
First Quarter
Feb 14
Full
Feb 22
Last Quarter

Hourly Weather History & Observations

Time (CST) Temp. Windchill Dew Point Humidity Pressure Visibility Wind Dir Wind Speed Gust Speed Precip Events Conditions
12:53 AM 21.9 °F - 8.1 °F 55% 30.27 in 10.0 mi Calm Calm - N/A   Clear
1:53 AM 21.9 °F - 8.1 °F 55% 30.25 in 10.0 mi Calm Calm - N/A   Clear
2:53 AM 21.9 °F 17.2 °F 9.0 °F 58% 30.23 in 10.0 mi South 3.5 mph - N/A   Clear
3:53 AM 21.0 °F 16.2 °F 10.0 °F 63% 30.20 in 10.0 mi South 3.5 mph - N/A   Clear
4:53 AM 19.9 °F 13.4 °F 10.0 °F 65% 30.18 in 10.0 mi South 4.6 mph - N/A   Clear
5:53 AM 21.0 °F 14.6 °F 10.9 °F 65% 30.17 in 10.0 mi South 4.6 mph - N/A   Clear
6:53 AM 21.0 °F 12.4 °F 10.9 °F 65% 30.15 in 10.0 mi South 6.9 mph - N/A   Clear
7:53 AM 25.0 °F 17.1 °F 15.1 °F 66% 30.13 in 10.0 mi SSW 6.9 mph - N/A   Clear
8:53 AM 30.0 °F 21.1 °F 16.0 °F 56% 30.09 in 10.0 mi South 10.4 mph - N/A   Clear
9:53 AM 36.0 °F 28.5 °F 15.1 °F 43% 30.09 in 10.0 mi South 10.4 mph - N/A   Partly Cloudy
10:53 AM 41.0 °F 34.3 °F 12.9 °F 32% 30.07 in 10.0 mi WSW 11.5 mph - N/A   Overcast
11:53 AM 45.0 °F 39.3 °F 14.0 °F 29% 30.03 in 10.0 mi WSW 11.5 mph - N/A   Overcast
12:53 PM 48.9 °F - 14.0 °F 25% 29.99 in 10.0 mi WSW 10.4 mph - N/A   Overcast
1:53 PM 54.0 °F - 17.1 °F 23% 29.96 in 10.0 mi West 10.4 mph 20.7 mph N/A   Partly Cloudy
2:53 PM 55.9 °F - 19.9 °F 25% 29.95 in 10.0 mi WSW 12.7 mph - N/A   Partly Cloudy
3:53 PM 55.9 °F - 21.9 °F 27% 29.96 in 10.0 mi West 9.2 mph - N/A   Clear
4:53 PM 53.1 °F - 23.0 °F 31% 29.98 in 10.0 mi West 5.8 mph - N/A   Clear
5:53 PM 48.9 °F - 23.0 °F 36% 30.01 in 10.0 mi NW 4.6 mph - N/A   Clear
6:53 PM 44.1 °F - 23.0 °F 43% 30.03 in 10.0 mi Calm Calm - N/A   Clear
7:53 PM 36.0 °F - 24.1 °F 62% 30.04 in 10.0 mi Calm Calm - N/A   Clear
8:53 PM 34.0 °F - 23.0 °F 64% 30.04 in 10.0 mi Calm Calm - N/A   Clear
9:53 PM 32.0 °F - 24.1 °F 73% 30.04 in 10.0 mi Calm Calm - N/A   Clear
10:53 PM 30.9 °F - 23.0 °F 72% 30.05 in 10.0 mi Calm Calm - N/A   Clear
11:53 PM 28.0 °F 24.2 °F 21.9 °F 78% 30.04 in 10.0 mi NNE 3.5 mph - N/A   Clear